Regional Weather Roundup
Issued by NWS Burlington, VT

Home | Current Version | Previous Version | Text Only | Print | Product List | Glossary On
Versions: 1 2 3 4 5 6 7 8 9 10 11 12 13 14 15 16 17 18 19 20 21 22 23 24 25 26 27 28 29 30 31 32 33 34 35 36 37 38 39 40 41 42 43 44 45 46 47 48 49 50
000
ASUS41 KBTV 262330
RWRBTV
VERMONT REGIONAL WEATHER ROUNDUP
NATIONAL WEATHER SERVICE BURLINGTON VT
600 PM EST SUN FEB 26 2017

NOTE: "FAIR" INDICATES FEW OR NO CLOUDS BELOW 12,000 FEET WITH NO
SIGNIFICANT WEATHER AND/OR OBSTRUCTIONS TO VISIBILITY.

* THESE REPORTS ARE NOT UNDER NWS QUALITY CONTROL AND/OR DO NOT
  REPORT WEATHER SUCH AS PRECIPITATION AND FOG.

VTZ001>019-270000-
_____VERMONT_____


CITY           SKY/WX    TMP DP  RH WIND       PRES   REMARKS
BURLINGTON     PTCLDY    32  10  40 W6        30.02R WCI  26
MONTPELIER     PTCLDY    27   9  46 W14       30.00R WCI  16
MORRISVILLE    CLEAR     27   6  41 NW8       30.00R WCI  19
ST. JOHNSBURY*   N/A     27  10  49 MISG      29.97R
LYNDONVILLE*   FAIR      23  11  59 W10       29.98R WCI  13
MIDDLEBURY*    FAIR      28   1  30 CALM      30.04R
RUTLAND*       PTCLDY    30  15  53 W10       30.02R WCI  21
SPRINGFIELD    CLOUDY    31  11  43 W9        30.02R WCI  23
HIGHGATE*      FAIR      27  13  55 CALM      30.02R
NEWPORT*       FAIR      23  10  58 CALM      29.99R
BENNINGTON     CLOUDY    31  15  52 W10G20    30.04R WCI  22
SUTTON*          N/A     19 N/A N/A MISG        N/A
ISLAND POND*     N/A     19 N/A N/A W5          N/A  WCI  13
GALLUP MILLS*    N/A     19 N/A N/A MISG        N/A
UNION VILLAGE*   N/A     28 N/A N/A MISG        N/A
MT. MANSFIELD*   N/A     10 N/A N/A W1          N/A

_____LAKE CHAMPLAIN_____


CITY           SKY/WX    TMP DP  RH WIND       PRES   REMARKS
BURTON ISLAND*   N/A     32  16  51 NE1         N/A
COLCHESTER RF*   N/A     34  16  47 W13         N/A  WCI  25
DIAMOND ISL*     N/A     34  14  44 W13         N/A  WCI  25

$$

NYZ007-026>031-035-052-083-087-270000-
_____NORTHERN NEW YORK_____


CITY           SKY/WX    TMP DP  RH WIND       PRES   REMARKS
PLATTSBURGH    PTCLDY    30  12  47 CALM      30.02R
SARANAC LAKE   MOCLDY    24  15  68 W8        29.94R WCI  15
MASSENA        CLEAR     32  15  49 SW13      30.01R WCI  22
OGDENSBURG*    FAIR      32  22  67 SW12G18   30.01S WCI  23
POTSDAM*       CLEAR     30  21  69 SW10      30.01R WCI  21
STARK FALLS*     N/A     27 N/A N/A SW6         N/A  WCI  20
WATERTOWN      PTCLDY    31  22  69 SW10G20   30.06R WCI  22
FT DRUM        CLEAR     30  18  62 W12G24    30.03R WCI  20
ALBANY         MOCLDY    33  18  53 W10       30.10R WCI  25
GLENS FALLS    MOCLDY    33  16  49 W6        30.07R WCI  28

$$
NHZ002-005-011-270000-
_____NEW HAMPSHIRE_____


CITY           SKY/WX    TMP DP  RH WIND       PRES   REMARKS
LEBANON        CLOUDY    33  12  41 NW8G24    29.99R WCI  26
KEENE          CLOUDY    33  13  43 W5        30.02R WCI  29
MT WASHINGTON  FOG        1   1 100 W53G62      N/A  VSB 1/16WCI -30
PLYMOUTH       FAIR      31  10  42 NW8G16    29.98R WCI  23
WHITEFIELD     CLEAR     26   9  48 W7        29.95R WCI  18

$$

_____REGIONAL QUEBEC LOCATIONS_____


CITY           SKY/WX    TMP DP  RH WIND       PRES   REMARKS
MONTREAL       PTCLDY    28  10  47 W9        30.00R WCI  20
QUEBEC CITY    PTCLDY    23  12  63 W15       29.91R WCI  10
SHERBROOKE     PTCLDY    19  12  73 W9        29.97R WCI   9

_____REGIONAL ONTARIO LOCATIONS_____


CITY           SKY/WX    TMP DP  RH WIND       PRES   REMARKS
OTTAWA         PTCLDY    30  18  59 SW13      29.96R WCI  20

______KEY______
VSB  - VISIBILITY IN MILES
WCI  - WIND CHILL INDEX
HX   - HEAT INDEX
$$
NNNN




USA.gov is the U.S. government's official web portal to all federal, state and local government web resources and services.